Location: UBC Liquid-Mirror Observatory
(49.2876°N, 122.5728°W)
Time: 13:59:03
(UTC-07:00)

Amateur Radio Satellites - All Passes

Search period start: 24 April 2017 13:29
Search period end: 25 April 2017 13:29
Location: UBC Liquid-Mirror Observatory, 49.2876°N, 122.5728°W

Satellite Date Start Highest point End Downlink Frequencies (MHz)
Time Altitude Azimuth
ESTCUBE 1 24 Apr 13:31:02 13:35:23 45° 291° (WNW) 13:39:42 437.505/2401.250
O/OREOS (USA 219) 24 Apr 13:33:14 13:36:15 17° 317° (NW) 13:39:17 437.305
Gurwin Techsat 1B 24 Apr 13:33:15 13:38:22 51° 68° (ENE) 13:43:32 435.225
50 SAT 24 Apr 13:35:43 13:39:03 40° 99° (E) 13:42:21 437.505
ITAMSAT 1 24 Apr 13:36:45 13:38:53 13° 51° (NE) 13:40:59 435.822/435.867
SPROUT 24 Apr 13:40:57 13:45:13 74° 104° (ESE) 13:49:27 437.525
YUBILEINY 24 Apr 13:44:50 13:49:35 15° 46° (NE) 13:54:19 435.215
Tancredo 1 24 Apr 13:47:15 13:50:22 60° 11° (N) 13:53:26 437.200
ISS 24 Apr 13:49:41 13:52:55 58° 8° (N) 13:56:08 437.550
Oscar 19 24 Apr 13:51:55 13:57:04 74° 256° (WSW) 14:02:17 437.125/150
VELOX 1 24 Apr 13:55:08 13:59:36 79° 286° (WNW) 14:04:02 145.980
SO-50 24 Apr 14:03:36 14:07:01 20° 27° (NNE) 14:10:24 436.795
RS-15 24 Apr 14:19:08 14:30:46 43° 17° (NNE) 14:42:07 29.354- 29.394
UKube-1 24 Apr 14:27:25 14:31:44 65° 102° (ESE) 14:36:01 .
BUGSAT 1 24 Apr 14:31:07 14:31:48 10° 273° (W) 14:32:29 437.445
AO-85 24 Apr 14:36:41 14:40:54 76° 311° (NW) 14:44:55 145.980
BEESAT 2 24 Apr 14:54:49 14:57:13 16° 112° (ESE) 14:59:39 435.950
DX 1 24 Apr 14:55:22 14:59:36 49° 291° (WNW) 15:03:48 434.975-435.025
BEESAT 3 24 Apr 15:00:01 15:03:42 40° 121° (ESE) 15:07:28 437.485
ITUPSAT 1 24 Apr 15:02:14 15:05:06 16° 89° (E) 15:07:56 437.325
AO-7 24 Apr 15:06:22 15:14:33 69° 64° (ENE) 15:22:47 .
50 SAT 24 Apr 15:09:21 15:11:44 17° 297° (WNW) 15:14:06 437.505
ITAMSAT 1 24 Apr 15:12:15 15:17:23 65° 70° (ENE) 15:22:33 435.822/435.867
Gurwin Techsat 1B 24 Apr 15:14:08 15:18:35 27° 267° (W) 15:23:05 435.225
SPROUT 24 Apr 15:18:11 15:20:36 15° 301° (WNW) 15:22:59 437.525
Tancredo 1 24 Apr 15:23:16 15:26:15 44° 209° (SSW) 15:29:14 437.200
ISS 24 Apr 15:26:13 15:29:25 53° 207° (SSW) 15:32:35 437.550
VELOX 1 24 Apr 15:33:34 15:35:19 12° 305° (NW) 15:37:04 145.980
Oscar 19 24 Apr 15:35:53 15:37:19 11° 276° (W) 15:38:45 437.125/150
YUBILEINY 24 Apr 15:40:12 15:48:49 56° 73° (ENE) 15:57:24 435.215
SO-50 24 Apr 15:43:38 15:48:11 78° 49° (NE) 15:52:41 436.795
BEESAT 24 Apr 15:59:44 16:04:24 51° 100° (E) 16:09:02 436.000
UKube-1 24 Apr 16:04:28 16:07:18 17° 301° (WNW) 16:10:08 .
MOZHAYETS 4 24 Apr 16:14:44 16:19:02 38° 97° (E) 16:23:19
AO-85 24 Apr 16:19:11 16:21:55 17° 331° (NNW) 16:24:36 145.980
BEESAT 2 24 Apr 16:30:31 16:34:29 70° 311° (NW) 16:38:32 435.950
RS-15 24 Apr 16:32:56 16:45:23 80° 48° (NE) 16:57:16 29.354- 29.394
BEESAT 3 24 Apr 16:37:48 16:41:23 31° 321° (NW) 16:45:01 437.485
ITUPSAT 1 24 Apr 16:38:41 16:43:28 75° 287° (WNW) 16:48:14 437.325
KKS-1 24 Apr 16:45:35 16:48:14 15° 89° (E) 16:50:51 437.445
LilacSat-2 24 Apr 16:52:35 16:53:09 10° 57° (ENE) 16:53:43 437.200
ITAMSAT 1 24 Apr 16:53:29 16:57:19 20° 269° (W) 17:01:09 435.822/435.867
HO-68 24 Apr 16:55:05 16:57:31 12° 37° (NE) 16:59:57 435.675
XW-2C 24 Apr 16:55:54 16:56:45 11° 58° (ENE) 16:57:35 145.795 - 145.815
CUBESAT XI-V 24 Apr 16:59:37 17:03:18 22° 91° (E) 17:06:57 437.345
AO-7 24 Apr 17:00:40 17:07:55 33° 265° (W) 17:15:14 .
ISS 24 Apr 17:04:20 17:05:18 11° 225° (SW) 17:06:15 437.550
XW-2F 24 Apr 17:21:14 17:23:49 18° 63° (ENE) 17:26:25 145.980 - 146.000
STARS 24 Apr 17:23:53 17:26:43 17° 90° (E) 17:29:31 437.465
SO-50 24 Apr 17:25:14 17:28:06 17° 248° (WSW) 17:30:56 436.795
DOVE 4 24 Apr 17:32:27 17:37:30 47° 69° (ENE) 17:42:29 437.250
YUBILEINY 24 Apr 17:37:28 17:45:21 40° 275° (W) 17:53:15 435.215
BEESAT 24 Apr 17:38:05 17:41:54 24° 299° (WNW) 17:45:42 436.000
NUDT-PHONESAT 24 Apr 17:39:32 17:42:26 23° 66° (ENE) 17:45:22 437.300
CUTE-I 24 Apr 17:42:35 17:47:31 39° 65° (ENE) 17:52:26 437.470
MOZHAYETS 4 24 Apr 17:52:06 17:56:05 29° 295° (WNW) 18:00:04
XW-2D 24 Apr 18:07:59 18:11:39 59° 73° (ENE) 18:15:22 145.860 - 145.880
BEESAT 2 24 Apr 18:10:18 18:12:59 17° 333° (NNW) 18:15:40 435.950
XW-2B 24 Apr 18:14:49 18:18:31 68° 75° (ENE) 18:22:16 145.730 - 145.750
ITUPSAT 1 24 Apr 18:18:25 18:20:30 13° 307° (NW) 18:22:35 437.325
BEESAT 3 24 Apr 18:18:56 18:20:12 11° 343° (NNW) 18:21:27 437.485
CUTE 1.7 + AOD 2 24 Apr 18:19:39 18:22:00 15° 59° (ENE) 18:24:22 437.475
KKS-1 24 Apr 18:20:50 18:25:16 68° 288° (WNW) 18:29:39 437.445
LilacSat-2 24 Apr 18:23:02 18:26:47 89° 79° (E) 18:30:35 437.200
XW-2C 24 Apr 18:26:35 18:30:20 87° 256° (WSW) 18:34:06 145.795 - 145.815
XW-2A 24 Apr 18:27:08 18:28:45 13° 62° (ENE) 18:30:23 145.665 - 145.685
KAITUO 1B 24 Apr 18:30:00 18:33:41 82° 77° (ENE) 18:37:25 145.475/437.950
CUBESAT XI-V 24 Apr 18:36:22 18:40:57 52° 290° (WNW) 18:45:31 437.345
HO-68 24 Apr 18:36:50 18:43:25 42° 60° (ENE) 18:50:04 435.675
O/OREOS (USA 219) 24 Apr 18:41:00 18:42:13 11° 35° (NE) 18:43:26 437.305
SEEDS 24 Apr 18:43:41 18:46:22 17° 60° (ENE) 18:49:04 437.485
RS-15 24 Apr 18:46:11 18:56:52 38° 253° (WSW) 19:07:09 29.354- 29.394
XW-2F 24 Apr 18:54:07 18:57:40 43° 261° (W) 19:01:16 145.980 - 146.000
UWE-3 24 Apr 18:54:42 18:55:32 11° 56° (NE) 18:56:22 435.000/436.395/437.385
STARS 24 Apr 18:59:08 19:03:28 61° 289° (WNW) 19:07:46 437.465
CUBEBUG 2 24 Apr 19:00:35 19:03:35 19° 62° (ENE) 19:06:33 437.445
DOVE 4 24 Apr 19:10:44 19:15:20 29° 267° (W) 19:19:53 437.250
NUDT-PHONESAT 24 Apr 19:12:54 19:16:13 32° 264° (W) 19:19:34 437.300
CUTE-I 24 Apr 19:22:43 19:27:36 36° 264° (W) 19:32:30 437.470
AO-85 24 Apr 19:44:16 19:46:09 13° 22° (NNE) 19:48:03 145.980
XW-2D 24 Apr 19:44:26 19:46:14 13° 271° (W) 19:48:03 145.860 - 145.880
XW-2B 24 Apr 19:51:56 19:53:11 11° 272° (W) 19:54:26 145.730 - 145.750
ZACube-1 24 Apr 19:52:33 19:55:46 22° 63° (ENE) 19:58:58 437.345
CUTE 1.7 + AOD 2 24 Apr 19:53:05 19:57:17 75° 258° (WSW) 20:01:32 437.475
STRAND 1 24 Apr 19:54:08 19:58:30 28° 94° (E) 20:02:51 437.568
AAUSAT CUBESAT 2 24 Apr 19:56:52 20:00:46 42° 69° (ENE) 20:04:44 437.432
XW-2A 24 Apr 19:57:51 20:01:08 52° 260° (W) 20:04:26 145.665 - 145.685
KKS-1 24 Apr 20:00:01 20:00:59 11° 307° (NW) 20:01:57 437.445
AO-73 24 Apr 20:00:37 20:03:57 24° 64° (ENE) 20:07:16 145.935
SEEDS 24 Apr 20:17:28 20:21:36 62° 259° (WSW) 20:25:49 437.485
O/OREOS (USA 219) 24 Apr 20:18:19 20:22:49 49° 58° (ENE) 20:27:14 437.305
Oscar 11 24 Apr 20:18:25 20:22:11 30° 66° (ENE) 20:25:58 .
HO-68 24 Apr 20:24:12 20:31:05 49° 260° (W) 20:38:02 435.675
UWE-3 24 Apr 20:27:01 20:31:17 76° 75° (ENE) 20:35:29 435.000/436.395/437.385
CUBEBUG 2 24 Apr 20:35:33 20:39:52 57° 259° (W) 20:44:05 437.445
OBJECT BX 24 Apr 20:42:47 20:44:13 12° 60° (ENE) 20:45:38 145.990 - 145.960
M-CUBED/EXP-1 PRIME 24 Apr 20:47:53 20:52:12 59° 106° (ESE) 20:56:10 437.505
DELFI C3 24 Apr 21:01:22 21:04:40 25° 65° (ENE) 21:08:00 145.870
NO-84 24 Apr 21:19:06 21:22:28 42° 143° (SE) 21:25:33 435.350 FM
AO-85 24 Apr 21:23:41 21:27:30 46° 45° (NE) 21:31:24 145.980
ZACube-1 24 Apr 21:27:48 21:31:49 43° 262° (W) 21:35:49 437.345
BEESAT 2 24 Apr 21:30:01 21:31:57 13° 21° (NNE) 21:33:53 435.950
STRAND 1 24 Apr 21:33:01 21:37:53 46° 293° (WNW) 21:42:44 437.568
AAUSAT CUBESAT 2 24 Apr 21:33:12 21:36:25 22° 268° (W) 21:39:40 437.432
BEESAT 3 24 Apr 21:35:43 21:38:44 20° 31° (NNE) 21:41:45 437.485
AO-73 24 Apr 21:36:05 21:40:02 39° 262° (W) 21:43:57 145.935
PRISM 24 Apr 21:48:08 21:50:03 13° 88° (E) 21:51:58 437.425
LO-87 24 Apr 21:53:53 21:55:12 12° 59° (ENE) 21:56:32 145.935 - 145.965
Oscar 11 24 Apr 21:54:26 21:58:17 32° 265° (W) 22:02:10 .
O/OREOS (USA 219) 24 Apr 21:58:18 22:01:55 23° 257° (WSW) 22:05:30 437.305
UWE-3 24 Apr 22:06:25 22:08:16 13° 272° (W) 22:10:06 435.000/436.395/437.385
OBJECT BX 24 Apr 22:13:46 22:17:23 71° 258° (WSW) 22:21:02 145.990 - 145.960
M-CUBED/EXP-1 PRIME 24 Apr 22:23:01 22:26:12 20° 307° (NW) 22:29:13 437.505
DELFI C3 24 Apr 22:35:42 22:39:20 34° 264° (W) 22:43:01 145.870
FO-29 24 Apr 22:50:14 22:54:42 28° 94° (E) 22:59:18 435.910
TIGRISAT 24 Apr 22:55:41 22:59:38 37° 97° (E) 23:03:38 435.000
NO-84 24 Apr 22:56:47 23:00:01 43° 340° (NNW) 23:02:59 435.350 FM
ESTCUBE 1 24 Apr 22:57:54 23:02:00 35° 66° (ENE) 23:06:08 437.505/2401.250
AO-85 24 Apr 23:04:28 23:07:40 24° 243° (WSW) 23:10:58 145.980
SPROUT 24 Apr 23:04:51 23:06:53 13° 57° (ENE) 23:08:56 437.525
BEESAT 2 24 Apr 23:06:53 23:10:46 41° 43° (NE) 23:14:37 435.950
BEESAT 3 24 Apr 23:12:48 23:16:52 86° 232° (SW) 23:20:52 437.485
UNISAT 6 24 Apr 23:16:07 23:20:22 64° 101° (E) 23:24:38 437.425
VELOX 1 24 Apr 23:21:04 23:24:24 21° 61° (ENE) 23:27:45 145.980
PRISM 24 Apr 23:21:40 23:25:51 73° 286° (WNW) 23:29:58 437.425
LO-87 24 Apr 23:24:30 23:28:07 74° 258° (WSW) 23:31:47 145.935 - 145.965
AIST 2D 24 Apr 23:41:08 23:43:26 16° 91° (E) 23:45:43 435.315
UKube-1 24 Apr 23:52:18 23:54:26 14° 56° (NE) 23:56:34 .
POLYITAN 1 24 Apr 23:54:23 23:56:41 14° 89° (E) 23:58:59 437.675
QB50P2 25 Apr 00:00:25 00:03:19 18° 91° (E) 00:06:11 145.880/145.840
50 SAT 25 Apr 00:12:25 00:15:30 30° 68° (ENE) 00:18:38 437.505
DX 1 25 Apr 00:18:59 00:22:49 30° 65° (ENE) 00:26:40 434.975-435.025
NANOSAT C BR1 25 Apr 00:23:59 00:27:30 25° 94° (E) 00:30:59 145.865
TIGRISAT 25 Apr 00:32:40 00:36:13 26° 295° (WNW) 00:39:47 435.000
ESTCUBE 1 25 Apr 00:34:54 00:38:51 30° 265° (W) 00:42:51 437.505/2401.250
FO-29 25 Apr 00:35:09 00:40:03 44° 293° (WNW) 00:45:04 435.910
NO-84 25 Apr 00:35:16 00:38:01 27° 1° (N) 00:40:37 435.350 FM
SPROUT 25 Apr 00:37:54 00:42:11 87° 256° (WSW) 00:46:29 437.525
BEESAT 2 25 Apr 00:44:53 00:48:25 29° 242° (WSW) 00:51:56 435.950
EO-79 25 Apr 00:50:06 00:54:13 50° 100° (E) 00:58:17 145.935-145.965
BEESAT 3 25 Apr 00:52:31 00:53:47 11° 250° (WSW) 00:55:01 437.485
UNISAT 6 25 Apr 00:53:54 00:56:39 17° 300° (WNW) 00:59:24 437.425
DUCHIFAT 1 25 Apr 00:54:34 00:58:37 46° 99° (E) 01:02:37 145.980
VELOX 1 25 Apr 00:56:08 01:00:31 54° 259° (W) 01:04:55 145.980
PRISM 25 Apr 00:59:43 01:00:21 10° 306° (NW) 01:01:00 437.425
AIST 2D 25 Apr 01:13:32 01:16:51 40° 289° (WNW) 01:20:09 435.315
UKube-1 25 Apr 01:25:29 01:29:50 88° 255° (WSW) 01:34:12 .
POLYITAN 1 25 Apr 01:28:45 01:32:56 66° 287° (WNW) 01:37:05 437.675
BEESAT 25 Apr 01:34:52 01:37:37 15° 56° (NE) 01:40:23 436.000
QB50P2 25 Apr 01:35:19 01:39:25 52° 289° (WNW) 01:43:30 145.880/145.840
50 SAT 25 Apr 01:45:46 01:48:30 21° 266° (W) 01:51:16 437.505
Gurwin Techsat 1B 25 Apr 01:46:34 01:49:21 14° 86° (E) 01:52:07 435.225
DX 1 25 Apr 01:54:57 01:58:56 34° 263° (W) 02:02:58 434.975-435.025
NANOSAT C BR1 25 Apr 01:59:28 02:03:18 36° 292° (WNW) 02:07:07 145.865
Oscar 19 25 Apr 01:59:29 02:04:00 29° 94° (E) 02:08:29 437.125/150
BUGSAT 1 25 Apr 02:04:26 02:08:29 85° 105° (ESE) 02:12:29 437.445
ITUPSAT 1 25 Apr 02:12:27 02:16:33 30° 63° (ENE) 02:20:40 437.325
NO-84 25 Apr 02:13:02 02:15:59 52° 23° (NNE) 02:18:47 435.350 FM
SPROUT 25 Apr 02:18:14 02:18:46 10° 274° (W) 02:19:18 437.525
EO-79 25 Apr 02:26:35 02:29:40 20° 298° (WNW) 02:32:43 145.935-145.965
PCSat 25 Apr 02:30:07 02:34:08 22° 108° (ESE) 02:38:11 145.827
DUCHIFAT 1 25 Apr 02:30:52 02:34:00 21° 298° (WNW) 02:37:09 145.980
YUBILEINY 25 Apr 02:57:28 02:59:58 11° 67° (ENE) 03:02:27 435.215
AO-7 25 Apr 03:05:04 03:09:35 15° 84° (E) 03:14:04 .
UKube-1 25 Apr 03:05:31 03:06:31 11° 273° (W) 03:07:32 .
BEESAT 25 Apr 03:09:59 03:14:46 88° 259° (W) 03:19:32 436.000
MOZHAYETS 4 25 Apr 03:20:21 03:24:49 58° 71° (ENE) 03:29:19
ITAMSAT 1 25 Apr 03:22:00 03:25:10 16° 88° (E) 03:28:17 435.822/435.867
Gurwin Techsat 1B 25 Apr 03:24:43 03:30:05 88° 105° (ESE) 03:35:24 435.225
Oscar 19 25 Apr 03:38:31 03:43:30 46° 293° (WNW) 03:48:27 437.125/150
BUGSAT 1 25 Apr 03:41:36 03:43:14 12° 303° (WNW) 03:44:52 437.445
KKS-1 25 Apr 03:47:06 03:50:45 25° 63° (ENE) 03:54:23 437.445
ITUPSAT 1 25 Apr 03:49:48 03:54:16 40° 262° (W) 03:58:46 437.325
NO-84 25 Apr 03:50:53 03:53:17 24° 223° (SW) 03:55:38 435.350 FM
CUBESAT XI-V 25 Apr 04:06:38 04:10:48 34° 66° (ENE) 04:15:00 437.345
PCSat 25 Apr 04:11:35 04:16:59 73° 307° (NW) 04:22:28 145.827
STARS 25 Apr 04:24:00 04:27:40 26° 63° (ENE) 04:31:20 437.465
YUBILEINY 25 Apr 04:46:16 04:54:37 55° 90° (E) 05:03:00 435.215
BEESAT 25 Apr 04:51:22 04:53:15 12° 273° (W) 04:55:08 436.000
AO-7 25 Apr 04:55:39 05:03:58 68° 106° (ESE) 05:12:15 .
MOZHAYETS 4 25 Apr 04:59:10 05:02:21 19° 270° (W) 05:05:34
ITAMSAT 1 25 Apr 05:00:04 05:05:16 81° 287° (WNW) 05:10:27 435.822/435.867
Gurwin Techsat 1B 25 Apr 05:05:53 05:09:21 18° 305° (NW) 05:12:48 435.225
KKS-1 25 Apr 05:22:49 05:27:05 44° 261° (W) 05:31:23 437.445
STRAND 1 25 Apr 05:39:05 05:40:42 11° 50° (NE) 05:42:19 437.568
CUBESAT XI-V 25 Apr 05:43:59 05:48:09 33° 265° (W) 05:52:25 437.345
PCSat 25 Apr 05:57:15 06:01:21 21° 330° (NNW) 06:05:28 145.827
CUTE-I 25 Apr 05:58:47 05:58:55 10° 83° (E) 05:59:03 437.470
STARS 25 Apr 05:59:41 06:03:51 40° 262° (W) 06:08:02 437.465
M-CUBED/EXP-1 PRIME 25 Apr 06:03:31 06:07:09 23° 55° (NE) 06:10:48 437.505
XW-2F 25 Apr 06:22:59 06:25:07 14° 90° (E) 06:27:15 145.980 - 146.000
NUDT-PHONESAT 25 Apr 06:39:27 06:42:01 17° 92° (E) 06:44:34 437.300
ITAMSAT 1 25 Apr 06:41:03 06:43:58 15° 307° (NW) 06:46:52 435.822/435.867
YUBILEINY 25 Apr 06:43:38 06:51:43 41° 293° (WNW) 06:59:53 435.215
AO-7 25 Apr 06:48:57 06:56:18 37° 307° (NW) 07:03:40 .
RS-15 25 Apr 07:02:37 07:12:34 32° 103° (ESE) 07:22:41 29.354- 29.394
DOVE 4 25 Apr 07:04:54 07:09:39 65° 101° (E) 07:14:06 437.250
XW-2D 25 Apr 07:10:19 07:14:02 48° 100° (E) 07:17:44 145.860 - 145.880
STRAND 1 25 Apr 07:13:52 07:18:53 60° 70° (ENE) 07:23:55 437.568
XW-2B 25 Apr 07:17:10 07:20:56 56° 101° (E) 07:24:41 145.730 - 145.750
LilacSat-2 25 Apr 07:26:07 07:29:57 76° 103° (ESE) 07:33:48 437.200
XW-2C 25 Apr 07:28:58 07:32:48 78° 103° (ESE) 07:36:37 145.795 - 145.815
KAITUO 1B 25 Apr 07:30:52 07:34:37 66° 102° (ESE) 07:38:22 145.475/437.950
CUTE-I 25 Apr 07:34:41 07:40:00 67° 103° (ESE) 07:45:17 437.470
CUTE 1.7 + AOD 2 25 Apr 07:34:51 07:37:19 15° 89° (E) 07:39:48 437.475
M-CUBED/EXP-1 PRIME 25 Apr 07:36:37 07:41:11 60° 253° (WSW) 07:45:51 437.505
SO-50 25 Apr 07:41:28 07:45:59 56° 124° (SE) 07:50:27 436.795
PCSat 25 Apr 07:44:54 07:46:55 12° 356° (N) 07:48:57 145.827
HO-68 25 Apr 07:47:11 07:53:15 28° 92° (E) 07:59:16 435.675
XW-2F 25 Apr 07:55:52 07:59:35 54° 288° (WNW) 08:03:19 145.980 - 146.000
SEEDS 25 Apr 07:57:50 08:00:38 17° 90° (E) 08:03:26 437.485
NUDT-PHONESAT 25 Apr 08:12:36 08:16:08 42° 289° (WNW) 08:19:39 437.300
UWE-3 25 Apr 08:14:32 08:15:32 11° 87° (E) 08:16:32 435.000/436.395/437.385
CUBEBUG 2 25 Apr 08:22:26 08:25:35 21° 92° (E) 08:28:45 437.445
PRISM 25 Apr 08:40:57 08:43:46 18° 60° (ENE) 08:46:35 437.425
AO-7 25 Apr 08:43:29 08:46:44 13° 332° (NNW) 08:50:00 .
DOVE 4 25 Apr 08:43:31 08:46:49 19° 302° (WNW) 08:50:00 437.250
UNISAT 6 25 Apr 08:44:56 08:46:58 13° 57° (ENE) 08:49:00 437.425
XW-2D 25 Apr 08:45:21 08:47:53 17° 297° (WNW) 08:50:26 145.860 - 145.880
XW-2A 25 Apr 08:48:05 08:51:27 88° 103° (ESE) 08:54:49 145.665 - 145.685
YUBILEINY 25 Apr 08:49:34 08:51:40 11° 321° (NW) 08:53:48 435.215
XW-2B 25 Apr 08:52:27 08:54:44 15° 299° (WNW) 08:57:01 145.730 - 145.750
STRAND 1 25 Apr 08:54:37 08:58:28 21° 269° (W) 09:02:21 437.568
LilacSat-2 25 Apr 09:02:04 09:03:42 12° 301° (WNW) 09:05:21 437.200
XW-2C 25 Apr 09:04:57 09:06:27 12° 301° (WNW) 09:07:55 145.795 - 145.815
KAITUO 1B 25 Apr 09:06:16 09:08:10 13° 300° (WNW) 09:10:03 145.475/437.950
FO-29 25 Apr 09:07:32 09:12:14 24° 60° (ENE) 09:16:36 435.910
CUTE 1.7 + AOD 2 25 Apr 09:09:20 09:13:36 66° 286° (WNW) 09:17:51 437.475
AAUSAT CUBESAT 2 25 Apr 09:09:49 09:13:52 44° 99° (E) 09:17:52 437.432
RS-15 25 Apr 09:11:25 09:23:37 90° 306° (NW) 09:36:06 29.354- 29.394
ZACube-1 25 Apr 09:11:41 09:15:10 25° 94° (E) 09:18:40 437.345
CUTE-I 25 Apr 09:15:32 09:19:36 23° 302° (WNW) 09:23:38 437.470
AO-73 25 Apr 09:19:27 09:23:02 27° 94° (E) 09:26:40 145.935
SO-50 25 Apr 09:22:39 09:26:42 30° 324° (NW) 09:30:45 436.795
PCSat 25 Apr 09:29:15 09:32:42 17° 23° (NNE) 09:36:09 145.827
SEEDS 25 Apr 09:32:29 09:36:41 57° 288° (WNW) 09:40:51 437.485
HO-68 25 Apr 09:34:24 09:41:33 69° 293° (WNW) 09:48:41 435.675
Tancredo 1 25 Apr 09:35:34 09:38:09 24° 144° (SE) 09:40:44 437.200
Oscar 11 25 Apr 09:36:51 09:40:50 34° 96° (E) 09:44:48 .
ISS 25 Apr 09:44:58 09:47:40 24° 143° (SE) 09:50:23 437.550
UWE-3 25 Apr 09:48:25 09:52:36 86° 281° (WNW) 09:56:49 435.000/436.395/437.385
TIGRISAT 25 Apr 09:58:03 10:02:19 54° 71° (ENE) 10:06:31 435.000
CUBEBUG 2 25 Apr 09:58:30 10:02:26 43° 290° (WNW) 10:06:24 437.445
DELFI C3 25 Apr 10:08:34 10:11:47 22° 93° (E) 10:14:57 145.870
PRISM 25 Apr 10:14:33 10:18:39 58° 259° (W) 10:22:47 437.425
UNISAT 6 25 Apr 10:18:40 10:23:05 88° 265° (W) 10:27:25 437.425
AIST 2D 25 Apr 10:20:30 10:22:03 13° 61° (ENE) 10:23:38 435.315
O/OREOS (USA 219) 25 Apr 10:35:26 10:39:08 25° 104° (ESE) 10:42:53 437.305
AAUSAT CUBESAT 2 25 Apr 10:45:48 10:49:04 22° 297° (WNW) 10:52:20 437.432
ZACube-1 25 Apr 10:47:42 10:51:34 37° 291° (WNW) 10:55:28 437.345
POLYITAN 1 25 Apr 10:50:38 10:53:41 20° 62° (ENE) 10:56:44 437.675
FO-29 25 Apr 10:50:44 10:57:00 68° 257° (WSW) 11:02:36 435.910
AO-73 25 Apr 10:55:33 10:59:21 34° 292° (WNW) 11:03:11 145.935
QB50P2 25 Apr 10:56:45 11:00:08 24° 63° (ENE) 11:03:31 145.880/145.840
SO-50 25 Apr 11:06:25 11:08:35 13° 348° (NNW) 11:10:44 436.795
Tancredo 1 25 Apr 11:10:42 11:13:49 83° 340° (NNW) 11:16:56 437.200
OBJECT BX 25 Apr 11:11:56 11:15:38 83° 106° (ESE) 11:19:18 145.990 - 145.960
PCSat 25 Apr 11:12:10 11:17:28 48° 47° (NE) 11:22:42 145.827
Oscar 11 25 Apr 11:13:08 11:16:54 29° 294° (WNW) 11:20:38 .
NANOSAT C BR1 25 Apr 11:19:45 11:23:30 33° 67° (ENE) 11:27:17 145.865
ISS 25 Apr 11:20:38 11:23:54 85° 346° (NNW) 11:27:10 437.550
HO-68 25 Apr 11:23:25 11:28:06 19° 314° (NW) 11:32:49 435.675
BUGSAT 1 25 Apr 11:24:56 11:26:57 13° 58° (ENE) 11:28:59 437.445
RS-15 25 Apr 11:26:06 11:37:48 46° 337° (NNW) 11:49:33 29.354- 29.394
UWE-3 25 Apr 11:26:58 11:28:24 12° 303° (WNW) 11:29:51 435.000/436.395/437.385
TIGRISAT 25 Apr 11:36:18 11:39:20 18° 269° (W) 11:42:19 435.000
DELFI C3 25 Apr 11:42:57 11:46:41 37° 291° (WNW) 11:50:23 145.870
Oscar 19 25 Apr 11:44:58 11:46:57 12° 50° (NE) 11:48:55 437.125/150
EO-79 25 Apr 11:46:05 11:50:16 64° 73° (ENE) 11:54:27 145.935-145.965
DUCHIFAT 1 25 Apr 11:49:56 11:54:03 58° 72° (ENE) 11:58:11 145.980
AIST 2D 25 Apr 11:51:25 11:54:50 59° 259° (WSW) 11:58:18 435.315
UNISAT 6 25 Apr 11:59:27 12:00:26 11° 274° (W) 12:01:25 437.425
O/OREOS (USA 219) 25 Apr 12:13:52 12:18:18 46° 303° (WNW) 12:22:46 437.305
LO-87 25 Apr 12:20:44 12:24:20 76° 103° (ESE) 12:27:54 145.935 - 145.965
SPROUT 25 Apr 12:21:14 12:22:54 12° 87° (E) 12:24:34 437.525
AO-7 25 Apr 12:21:36 12:24:45 13° 28° (NNE) 12:27:55 .
ESTCUBE 1 25 Apr 12:22:19 12:26:40 42° 98° (E) 12:30:59 437.505/2401.250
POLYITAN 1 25 Apr 12:25:02 12:29:09 51° 260° (W) 12:33:17 437.675
QB50P2 25 Apr 12:31:43 12:35:44 41° 262° (W) 12:39:45 145.880/145.840
FO-29 25 Apr 12:41:21 12:42:59 11° 275° (W) 12:44:36 435.910
VELOX 1 25 Apr 12:42:24 12:45:48 21° 92° (E) 12:49:10 145.980
Tancredo 1 25 Apr 12:46:52 12:49:55 52° 2° (N) 12:52:58 437.200
OBJECT BX 25 Apr 12:47:53 12:48:44 11° 302° (WNW) 12:49:35 145.990 - 145.960
SO-50 25 Apr 12:48:44 12:50:58 13° 13° (NNE) 12:53:11 436.795
NANOSAT C BR1 25 Apr 12:55:36 12:59:14 28° 265° (W) 13:02:55 145.865
PCSat 25 Apr 12:55:50 13:00:45 35° 247° (WSW) 13:05:38 145.827
ISS 25 Apr 12:57:20 13:00:33 54° 2° (N) 13:03:46 437.550
BUGSAT 1 25 Apr 12:57:36 13:01:45 80° 254° (WSW) 13:05:54 437.445
50 SAT 25 Apr 13:04:55 13:07:24 18° 93° (E) 13:09:51 437.505
UKube-1 25 Apr 13:10:26 13:11:50 11° 87° (E) 13:13:14 .
Gurwin Techsat 1B 25 Apr 13:10:57 13:15:43 35° 64° (ENE) 13:20:29 435.225
EO-79 25 Apr 13:24:02 13:26:27 15° 271° (W) 13:28:53 145.935-145.965
